CSZ9638 ZYCC-ZGSZ

Flight info

Callsign CSZ9638
Flight time N/A
Altitude 32100
Route M078S0980 BUTET G341 TGO G212 VYK W37 OMBEB R473 NOLON W90 POU W7 SAREX
Aircraft B38M/M-SDE2E3FGHIRWYZ/LB1

Departure

Time N/A
Airport Changchun Longjia International Airport (ZYCC)

Arrival

Time 2026-04-28 14:20
Airport Shenzhen Bao'an International Airport (ZGSZ)
Time Latitude Longitude Altitude Speed Heading
2026-04-28 12:36 32.46794 114.64463 34271 ft 396 kts 192°
2026-04-28 12:36 32.41305 114.63948 34264 ft 396 kts 192°
2026-04-28 12:37 32.35815 114.63419 34265 ft 395 kts 192°
2026-04-28 12:37 32.30379 114.62889 34268 ft 395 kts 192°
2026-04-28 12:38 32.24914 114.62358 34273 ft 395 kts 192°
2026-04-28 12:38 32.19433 114.61825 34249 ft 394 kts 192°
2026-04-28 12:39 32.13966 114.61295 34258 ft 393 kts 192°
2026-04-28 12:39 32.08510 114.60766 34254 ft 393 kts 192°
2026-04-28 12:40 32.03088 114.60241 34255 ft 393 kts 192°
2026-04-28 12:40 31.97621 114.59712 34211 ft 393 kts 192°
2026-04-28 12:41 31.93091 114.59275 34238 ft 392 kts 192°
2026-04-28 12:41 31.86761 114.58664 34232 ft 392 kts 192°
2026-04-28 12:42 31.82236 114.58228 34233 ft 392 kts 192°
2026-04-28 12:42 31.76799 114.57705 34231 ft 392 kts 192°
2026-04-28 12:43 31.71355 114.57182 34203 ft 393 kts 192°
2026-04-28 12:43 31.65882 114.56656 34221 ft 395 kts 192°
2026-04-28 12:44 31.60411 114.56133 34203 ft 394 kts 192°
2026-04-28 12:44 31.54937 114.55609 34226 ft 395 kts 192°
2026-04-28 12:45 31.49462 114.55086 34194 ft 394 kts 192°
2026-04-28 12:45 31.44032 114.54567 34201 ft 394 kts 192°
2026-04-28 12:46 31.38560 114.54046 34188 ft 394 kts 192°
2026-04-28 12:46 31.33093 114.53526 34189 ft 394 kts 192°
2026-04-28 12:47 31.27628 114.53002 34192 ft 394 kts 192°
2026-04-28 12:47 31.22481 114.51462 34179 ft 378 kts 209°
2026-04-28 12:48 31.17649 114.48991 34180 ft 383 kts 209°
2026-04-28 12:48 31.12794 114.46424 34175 ft 383 kts 209°
2026-04-28 12:49 31.07951 114.43834 34177 ft 383 kts 209°
2026-04-28 12:49 31.03108 114.41239 34175 ft 383 kts 209°
2026-04-28 12:50 30.98263 114.38646 34154 ft 384 kts 209°
2026-04-28 12:50 30.93418 114.36054 34172 ft 384 kts 209°
2026-04-28 12:51 30.88646 114.33328 34175 ft 383 kts 210°
2026-04-28 12:51 30.83877 114.30610 34174 ft 383 kts 210°
2026-04-28 12:52 30.79061 114.27938 34172 ft 384 kts 209°
2026-04-28 12:52 30.74211 114.25298 34155 ft 387 kts 209°
2026-04-28 12:53 30.69316 114.22632 34176 ft 388 kts 209°
2026-04-28 12:53 30.64427 114.19971 34173 ft 388 kts 209°
2026-04-28 12:54 30.59532 114.17311 34174 ft 388 kts 209°
2026-04-28 12:54 30.54670 114.14679 34165 ft 388 kts 209°
2026-04-28 12:55 30.49760 114.12025 34173 ft 390 kts 209°
2026-04-28 12:55 30.44836 114.09366 34163 ft 390 kts 209°
2026-04-28 12:56 30.39914 114.06711 34161 ft 390 kts 208°
2026-04-28 12:56 30.35004 114.04066 34157 ft 389 kts 209°
2026-04-28 12:57 30.30093 114.01423 34137 ft 389 kts 209°
2026-04-28 12:57 30.25197 113.98792 34158 ft 391 kts 209°
2026-04-28 12:58 30.20261 113.96147 34158 ft 390 kts 209°
2026-04-28 12:58 30.15325 113.93504 34156 ft 391 kts 209°
2026-04-28 12:59 30.10392 113.90867 34150 ft 390 kts 209°
2026-04-28 12:59 30.05455 113.88230 34142 ft 391 kts 209°
2026-04-28 13:00 30.00545 113.85610 34147 ft 391 kts 209°
2026-04-28 13:00 29.95607 113.82978 34150 ft 391 kts 209°
2026-04-28 13:01 29.90661 113.80345 34145 ft 391 kts 209°
2026-04-28 13:01 29.85456 113.78494 34143 ft 401 kts 189°
2026-04-28 13:02 29.79913 113.78011 34123 ft 403 kts 189°
2026-04-28 13:02 29.74316 113.77583 34139 ft 403 kts 189°
2026-04-28 13:03 29.68720 113.77188 34130 ft 403 kts 189°
2026-04-28 13:03 29.63121 113.76798 34131 ft 403 kts 189°
2026-04-28 13:04 29.57524 113.76409 34124 ft 403 kts 189°
2026-04-28 13:04 29.51938 113.76021 34110 ft 404 kts 188°
2026-04-28 13:05 29.46363 113.75635 34108 ft 403 kts 188°
2026-04-28 13:05 29.40759 113.75246 34110 ft 403 kts 188°
2026-04-28 13:06 29.35205 113.74864 34149 ft 392 kts 189°
2026-04-28 13:06 29.29740 113.74484 34069 ft 397 kts 188°
2026-04-28 13:07 29.24194 113.74108 34086 ft 400 kts 187°
2026-04-28 13:07 29.18601 113.74298 34089 ft 402 kts 184°
2026-04-28 13:08 29.13010 113.74465 34086 ft 401 kts 184°
2026-04-28 13:08 29.07463 113.74613 34080 ft 401 kts 184°
2026-04-28 13:09 29.01873 113.74760 34083 ft 401 kts 184°
2026-04-28 13:09 28.96301 113.74906 34076 ft 401 kts 184°
2026-04-28 13:10 28.90871 113.75053 34098 ft 383 kts 184°
2026-04-28 13:10 28.85495 113.75189 34248 ft 392 kts 184°
2026-04-28 13:11 28.79963 113.75334 34230 ft 405 kts 184°
2026-04-28 13:11 28.74306 113.75472 34214 ft 407 kts 186°
2026-04-28 13:12 28.68677 113.75023 34225 ft 406 kts 188°
2026-04-28 13:12 28.65891 113.74813 34238 ft 394 kts 188°
2026-04-28 13:12 28.63147 113.74616 34179 ft 397 kts 188°
2026-04-28 13:13 28.57591 113.74226 34214 ft 401 kts 188°
2026-04-28 13:13 28.52050 113.73839 34203 ft 401 kts 188°
2026-04-28 13:14 28.46464 113.73449 34201 ft 404 kts 188°
2026-04-28 13:14 28.40832 113.73057 34198 ft 404 kts 187°
2026-04-28 13:15 28.35247 113.72668 34194 ft 404 kts 188°
2026-04-28 13:15 28.29628 113.72265 34186 ft 404 kts 188°
2026-04-28 13:16 28.24007 113.71858 34165 ft 404 kts 188°
2026-04-28 13:16 28.18370 113.71445 34181 ft 408 kts 188°
2026-04-28 13:17 28.12684 113.71019 34171 ft 408 kts 188°
2026-04-28 13:17 28.07058 113.70532 34171 ft 408 kts 188°
2026-04-28 13:18 28.01394 113.70031 34167 ft 408 kts 189°
2026-04-28 13:18 27.95740 113.69524 34151 ft 408 kts 189°
2026-04-28 13:19 27.90040 113.69016 34163 ft 412 kts 189°
2026-04-28 13:19 27.84372 113.68510 34163 ft 411 kts 189°
2026-04-28 13:20 27.78663 113.68002 34157 ft 411 kts 189°
2026-04-28 13:20 27.72954 113.67493 34163 ft 411 kts 189°
2026-04-28 13:21 27.67233 113.66985 34157 ft 414 kts 189°
2026-04-28 13:21 27.61446 113.66724 34172 ft 417 kts 186°
2026-04-28 13:22 27.55676 113.66604 34162 ft 417 kts 186°
2026-04-28 13:22 27.49866 113.66464 34148 ft 417 kts 186°
2026-04-28 13:23 27.44060 113.66324 34153 ft 417 kts 186°
2026-04-28 13:23 27.38252 113.66182 34161 ft 419 kts 185°
2026-04-28 13:24 27.32411 113.66041 34159 ft 419 kts 185°
2026-04-28 13:24 27.26578 113.65899 34153 ft 419 kts 185°
2026-04-28 13:25 27.20749 113.65758 34152 ft 419 kts 185°
2026-04-28 13:25 27.17826 113.65850 34138 ft 424 kts 174°
2026-04-28 13:25 27.14987 113.66656 34160 ft 427 kts 170°
2026-04-28 13:26 27.09178 113.68305 34167 ft 433 kts 170°
2026-04-28 13:26 27.03345 113.70011 34148 ft 432 kts 170°
2026-04-28 13:27 26.97518 113.71729 34147 ft 433 kts 170°
2026-04-28 13:27 26.91726 113.73436 34152 ft 433 kts 170°
2026-04-28 13:28 26.85899 113.75151 34130 ft 433 kts 170°
2026-04-28 13:28 26.80063 113.76867 34153 ft 435 kts 170°
2026-04-28 13:29 26.74213 113.78604 34147 ft 435 kts 169°
2026-04-28 13:29 26.68388 113.80433 34151 ft 435 kts 169°
2026-04-28 13:30 26.62559 113.82252 34154 ft 435 kts 169°
2026-04-28 13:30 26.57706 113.83765 34149 ft 435 kts 169°
2026-04-28 13:31 26.48935 113.86455 34152 ft 435 kts 171°
2026-04-28 13:31 26.43075 113.88145 34160 ft 435 kts 171°
2026-04-28 13:32 26.37223 113.89842 34138 ft 434 kts 171°
2026-04-28 13:32 26.31373 113.91537 34155 ft 435 kts 171°
2026-04-28 13:33 26.25553 113.93221 34157 ft 434 kts 171°
2026-04-28 13:33 26.19692 113.94916 34157 ft 435 kts 171°
2026-04-28 13:34 26.13829 113.96609 34171 ft 435 kts 171°
2026-04-28 13:34 26.07977 113.98298 34150 ft 434 kts 171°
2026-04-28 13:35 26.02113 113.99993 34158 ft 435 kts 171°
2026-04-28 13:35 25.96265 114.01738 34153 ft 434 kts 171°
2026-04-28 13:36 25.90491 114.03453 34164 ft 432 kts 171°
2026-04-28 13:36 25.84688 114.05175 34144 ft 432 kts 171°
2026-04-28 13:37 25.78875 114.06899 34149 ft 432 kts 171°
2026-04-28 13:37 25.73081 114.08614 34169 ft 433 kts 171°
2026-04-28 13:38 25.67245 114.10341 34134 ft 433 kts 171°
2026-04-28 13:38 25.61578 114.12016 34150 ft 432 kts 171°
2026-04-28 13:39 25.55776 114.13729 34152 ft 431 kts 171°
2026-04-28 13:39 25.50006 114.15431 34148 ft 432 kts 171°
2026-04-28 13:40 25.44195 114.17144 34142 ft 432 kts 171°
2026-04-28 13:40 25.38386 114.18854 34149 ft 432 kts 171°
2026-04-28 13:41 25.32568 114.20565 34137 ft 433 kts 171°
2026-04-28 13:41 25.26732 114.22279 34137 ft 433 kts 170°
2026-04-28 13:42 25.20942 114.23979 34134 ft 433 kts 171°
2026-04-28 13:42 25.15104 114.25692 34142 ft 433 kts 171°
2026-04-28 13:43 25.09245 114.26925 34123 ft 420 kts 188°
2026-04-28 13:43 25.03505 114.25940 34133 ft 420 kts 194°
2026-04-28 13:44 24.97794 114.24765 34142 ft 420 kts 195°
2026-04-28 13:44 24.92030 114.23523 34142 ft 419 kts 195°
2026-04-28 13:45 24.86303 114.22278 34144 ft 419 kts 195°
2026-04-28 13:45 24.80601 114.21038 34143 ft 420 kts 195°
2026-04-28 13:46 24.74858 114.19791 34154 ft 420 kts 195°
2026-04-28 13:46 24.69122 114.18547 34153 ft 420 kts 195°
2026-04-28 13:47 24.63380 114.17302 34144 ft 420 kts 195°
2026-04-28 13:47 24.57643 114.16059 34156 ft 420 kts 195°
2026-04-28 13:48 24.51906 114.14818 34133 ft 420 kts 195°
2026-04-28 13:48 24.46242 114.13593 34155 ft 422 kts 195°
2026-04-28 13:49 24.40472 114.12348 34148 ft 422 kts 195°
2026-04-28 13:49 24.34798 114.10831 34135 ft 414 kts 209°
2026-04-28 13:50 24.29832 114.07698 34144 ft 413 kts 213°
2026-04-28 13:50 24.24949 114.04397 34134 ft 411 kts 216°
2026-04-28 13:51 24.20153 114.01082 34149 ft 410 kts 216°
2026-04-28 13:51 24.15329 113.97746 34124 ft 410 kts 216°
2026-04-28 13:52 24.10600 113.94402 34067 ft 394 kts 222°
2026-04-28 13:52 24.08583 113.92420 33616 ft 388 kts 225°
2026-04-28 13:52 24.06547 113.90414 33069 ft 400 kts 224°
2026-04-28 13:53 24.04444 113.88347 32645 ft 413 kts 224°
2026-04-28 13:53 24.02277 113.86216 32199 ft 422 kts 224°
2026-04-28 13:53 24.00085 113.84062 31793 ft 426 kts 224°
2026-04-28 13:53 23.97878 113.81892 31383 ft 427 kts 224°
2026-04-28 13:54 23.95668 113.79722 30994 ft 426 kts 224°
2026-04-28 13:54 23.93467 113.77561 30611 ft 425 kts 224°
2026-04-28 13:54 23.91270 113.75404 30224 ft 423 kts 224°
2026-04-28 13:54 23.89089 113.73264 29848 ft 420 kts 224°
2026-04-28 13:55 23.86944 113.71165 29449 ft 418 kts 224°
2026-04-28 13:55 23.84780 113.69050 29043 ft 416 kts 224°
2026-04-28 13:55 23.82637 113.66946 28604 ft 411 kts 224°
2026-04-28 13:55 23.80514 113.64866 28201 ft 408 kts 224°
2026-04-28 13:56 23.78406 113.62802 27918 ft 405 kts 224°
2026-04-28 13:56 23.76307 113.60749 27687 ft 404 kts 224°
2026-04-28 13:56 23.74218 113.58706 27439 ft 402 kts 224°
2026-04-28 13:56 23.72135 113.56671 27201 ft 400 kts 224°
2026-04-28 13:57 23.70092 113.54673 26989 ft 399 kts 224°
2026-04-28 13:57 23.68025 113.52657 26764 ft 398 kts 224°
2026-04-28 13:57 23.65962 113.50644 26545 ft 396 kts 224°
2026-04-28 13:57 23.63912 113.48644 26304 ft 395 kts 224°
2026-04-28 13:58 23.61868 113.46651 26087 ft 393 kts 224°
2026-04-28 13:58 23.59830 113.44665 25874 ft 392 kts 224°
2026-04-28 13:58 23.57801 113.42688 25662 ft 391 kts 224°
2026-04-28 13:58 23.55771 113.40709 25445 ft 389 kts 224°
2026-04-28 13:59 23.53652 113.38880 25242 ft 391 kts 213°
2026-04-28 13:59 23.51154 113.37716 24983 ft 392 kts 203°
2026-04-28 13:59 23.48588 113.36690 24789 ft 392 kts 204°
2026-04-28 13:59 23.46062 113.35693 24577 ft 390 kts 203°
2026-04-28 14:00 23.43501 113.34700 24366 ft 389 kts 203°
2026-04-28 14:00 23.40947 113.33721 24152 ft 388 kts 203°
2026-04-28 14:00 23.38400 113.32748 23943 ft 387 kts 203°
2026-04-28 14:00 23.35865 113.31783 23728 ft 385 kts 202°
2026-04-28 14:01 23.33339 113.30823 23535 ft 384 kts 202°
2026-04-28 14:01 23.30823 113.29866 23132 ft 382 kts 202°
2026-04-28 14:01 23.28282 113.28901 22224 ft 390 kts 202°
2026-04-28 14:01 23.25694 113.27918 21411 ft 396 kts 202°
2026-04-28 14:02 23.23126 113.26943 20871 ft 394 kts 202°
2026-04-28 14:02 23.20553 113.25966 20408 ft 389 kts 202°
2026-04-28 14:02 23.18005 113.25000 19936 ft 386 kts 202°
2026-04-28 14:02 23.15482 113.24043 19479 ft 383 kts 202°
2026-04-28 14:03 23.12974 113.23092 19008 ft 380 kts 202°
2026-04-28 14:03 23.10482 113.22148 18554 ft 378 kts 202°
2026-04-28 14:03 23.08002 113.21236 18079 ft 376 kts 198°
2026-04-28 14:03 23.05385 113.20947 17528 ft 383 kts 178°
2026-04-28 14:04 23.02805 113.21674 17142 ft 385 kts 159°
2026-04-28 14:04 23.00578 113.23301 16748 ft 389 kts 140°
2026-04-28 14:04 22.98970 113.25669 16360 ft 393 kts 120°
2026-04-28 14:04 22.97749 113.28298 15962 ft 389 kts 121°
2026-04-28 14:05 22.96507 113.30888 15572 ft 385 kts 121°
2026-04-28 14:05 22.95280 113.33453 15191 ft 382 kts 121°
2026-04-28 14:05 22.94066 113.35996 14807 ft 378 kts 121°
2026-04-28 14:05 22.92859 113.38522 14428 ft 375 kts 121°
2026-04-28 14:06 22.91662 113.41026 14043 ft 372 kts 121°
2026-04-28 14:06 22.90485 113.43488 13664 ft 370 kts 121°
2026-04-28 14:06 22.89022 113.45728 13176 ft 360 kts 140°
2026-04-28 14:06 22.86982 113.47206 12733 ft 348 kts 161°
2026-04-28 14:07 22.84673 113.47784 12373 ft 336 kts 180°
2026-04-28 14:07 22.82357 113.47753 12014 ft 330 kts 185°
2026-04-28 14:07 22.80066 113.47652 11608 ft 328 kts 186°
2026-04-28 14:07 22.77791 113.47520 11206 ft 326 kts 186°
2026-04-28 14:08 22.75532 113.47375 10882 ft 322 kts 186°
2026-04-28 14:08 22.73326 113.47222 10698 ft 313 kts 187°
2026-04-28 14:08 22.71187 113.47069 10547 ft 304 kts 187°
2026-04-28 14:08 22.69799 113.46967 10464 ft 297 kts 187°
2026-04-28 14:09 22.67093 113.46768 10269 ft 286 kts 187°
2026-04-28 14:09 22.65134 113.46623 10125 ft 278 kts 187°
2026-04-28 14:09 22.63248 113.46761 9916 ft 278 kts 166°
2026-04-28 14:09 22.61596 113.47863 9626 ft 285 kts 137°
2026-04-28 14:10 22.60669 113.49749 9351 ft 290 kts 102°
2026-04-28 14:10 22.60841 113.51887 9185 ft 286 kts 69°
2026-04-28 14:10 22.61929 113.53635 9028 ft 277 kts 44°
2026-04-28 14:10 22.63273 113.55096 8841 ft 271 kts 43°
2026-04-28 14:11 22.64804 113.56230 8563 ft 265 kts 18°
2026-04-28 14:11 22.66576 113.56612 8339 ft 256 kts
2026-04-28 14:11 22.68331 113.56736 8148 ft 250 kts 360°
2026-04-28 14:11 22.70063 113.56835 7887 ft 248 kts 359°
2026-04-28 14:12 22.71786 113.56916 7607 ft 247 kts 359°
2026-04-28 14:12 22.73483 113.56986 7326 ft 247 kts 358°
2026-04-28 14:12 22.75197 113.57047 7034 ft 247 kts 358°
2026-04-28 14:12 22.76914 113.57104 6761 ft 246 kts 358°
2026-04-28 14:13 22.78629 113.57158 6484 ft 245 kts 358°
2026-04-28 14:13 22.80311 113.57212 6240 ft 238 kts 358°
2026-04-28 14:13 22.81944 113.57338 5941 ft 235 kts 12°
2026-04-28 14:13 22.83330 113.58192 5614 ft 233 kts 47°
2026-04-28 14:14 22.84208 113.59626 5356 ft 225 kts 64°
2026-04-28 14:14 22.84934 113.61103 5126 ft 219 kts 64°
2026-04-28 14:14 22.85638 113.62552 4951 ft 215 kts 65°
2026-04-28 14:14 22.86062 113.63520 4800 ft 214 kts 76°
2026-04-28 14:15 22.85982 113.65558 4358 ft 198 kts 121°
2026-04-28 14:15 22.85173 113.66707 4096 ft 188 kts 142°
2026-04-28 14:15 22.84145 113.67534 3844 ft 185 kts 154°
2026-04-28 14:15 22.83013 113.68191 3607 ft 184 kts 157°
2026-04-28 14:16 22.82245 113.68611 3443 ft 183 kts 157°
2026-04-28 14:16 22.81110 113.69236 3214 ft 182 kts 157°
2026-04-28 14:16 22.79981 113.69859 2977 ft 182 kts 156°
2026-04-28 14:16 22.78487 113.70683 2666 ft 181 kts 156°
2026-04-28 14:17 22.77376 113.71297 2452 ft 171 kts 156°
2026-04-28 14:17 22.76698 113.71671 2301 ft 159 kts 156°
2026-04-28 14:17 22.75418 113.72378 2028 ft 154 kts 156°
2026-04-28 14:17 22.74785 113.72727 1896 ft 154 kts 156°
2026-04-28 14:18 22.73830 113.73254 1701 ft 154 kts 156°
2026-04-28 14:18 22.72881 113.73778 1495 ft 151 kts 155°
2026-04-28 14:18 22.71984 113.74272 1340 ft 140 kts 155°
2026-04-28 14:18 22.71115 113.74752 1171 ft 143 kts 154°
2026-04-28 14:19 22.70227 113.75259 971 ft 145 kts 153°
2026-04-28 14:19 22.69024 113.75913 733 ft 148 kts 154°
2026-04-28 14:19 22.68403 113.76253 582 ft 149 kts 153°
2026-04-28 14:19 22.67511 113.76757 386 ft 143 kts 154°
2026-04-28 14:20 22.66626 113.77237 202 ft 142 kts 154°
2026-04-28 14:20 22.65745 113.77719 35 ft 141 kts 153°
2026-04-28 14:20 22.64973 113.78144 18 ft 95 kts 153°
2026-04-28 14:20 22.64568 113.78370 18 ft 44 kts 147°
2026-04-28 14:21 22.64415 113.78544 18 ft 19 kts 124°
2026-04-28 14:21 22.64389 113.78585 19 ft 4 kts 123°
2026-04-28 14:21 22.64370 113.78625 20 ft 8 kts 99°
2026-04-28 14:21 22.64418 113.78660 18 ft 11 kts 345°
2026-04-28 14:22 22.64498 113.78618 18 ft 14 kts 333°
2026-04-28 14:22 22.64593 113.78566 18 ft 17 kts 333°
2026-04-28 14:22 22.64706 113.78504 18 ft 19 kts 334°
2026-04-28 14:22 22.64835 113.78436 18 ft 22 kts 334°
2026-04-28 14:23 22.64979 113.78357 18 ft 24 kts 333°
2026-04-28 14:23 22.65137 113.78269 18 ft 27 kts 333°
2026-04-28 14:23 22.65307 113.78176 19 ft 29 kts 334°
2026-04-28 14:23 22.65494 113.78076 18 ft 31 kts 332°
2026-04-28 14:24 22.65654 113.77984 18 ft 25 kts 332°
2026-04-28 14:24 22.65791 113.77908 18 ft 17 kts 333°
2026-04-28 14:24 22.65897 113.77850 18 ft 14 kts 333°
2026-04-28 14:24 22.65977 113.77807 18 ft 11 kts 341°
2026-04-28 14:25 22.66060 113.77818 20 ft 13 kts 15°
2026-04-28 14:25 22.66158 113.77852 18 ft 16 kts 36°
2026-04-28 14:25 22.66217 113.77961 18 ft 18 kts 65°
2026-04-28 14:25 22.66277 113.78094 18 ft 21 kts 63°
2026-04-28 14:26 22.66348 113.78232 18 ft 14 kts 62°
2026-04-28 14:26 22.66335 113.78330 18 ft 16 kts 152°
2026-04-28 14:26 22.66230 113.78386 19 ft 18 kts 154°
2026-04-28 14:26 22.66108 113.78450 18 ft 21 kts 154°
2026-04-28 14:27 22.65971 113.78523 18 ft 23 kts 153°
2026-04-28 14:27 22.65834 113.78598 18 ft 25 kts 153°
2026-04-28 14:27 22.65668 113.78689 18 ft 27 kts 153°
2026-04-28 14:27 22.65494 113.78784 18 ft 29 kts 153°
2026-04-28 14:28 22.65307 113.78886 19 ft 31 kts 153°
2026-04-28 14:28 22.65112 113.78991 18 ft 32 kts 153°
2026-04-28 14:28 22.64907 113.79107 18 ft 34 kts 153°
2026-04-28 14:28 22.64733 113.79202 19 ft 26 kts 153°
2026-04-28 14:29 22.64567 113.79293 18 ft 28 kts 153°
2026-04-28 14:29 22.64439 113.79364 18 ft 21 kts 153°
2026-04-28 14:29 22.64299 113.79441 18 ft 24 kts 153°
2026-04-28 14:29 22.64219 113.79494 19 ft 9 kts 117°
2026-04-28 14:30 22.64240 113.79559 19 ft 6 kts 54°
2026-04-28 14:30 22.64270 113.79605 18 ft 9 kts 61°
2026-04-28 14:30 22.64289 113.79645 18 ft 0 kts 62°